Location: Auckland
(36.8670°S, 174.7670°E)
Time: 08:37:50
(UTC+13:00)

Atlas Centaur 2 - Pass Details

Date: 24 January 2019
Orbit: 459 x 1311 km, 30.4° (Epoch: 16 October)

Event Time Altitude Azimuth Distance (km) Brightness Sun altitude
Rises 22:24:28 0° 285° (WNW) 4,199 6.3 -18.4°
Reaches altitude 10° 22:27:23 10° 289° (WNW) 3,287 5.6 -18.9°
Maximum altitude 22:35:38 55° 3° (N) 1,538 3.2 -20.0°
Enters shadow 22:39:54 30° 66° (ENE) 2,141 3.7 -20.6°
